Location: Andershausen
(51.8462°N, 9.8595°E)
Time: 11:32:04
(UTC+00:00)

Cosmos 2251 Rocket - Pass Details

Date: 18 November 2025
Orbit: 760 x 788 km, 74.0° (Epoch: 10 December)

Event Time Altitude Azimuth Distance (km) Brightness Sun altitude
Rises 17:27:20 0° 199° (SSW) 3,235 7.1 -18.4°
Reaches altitude 10° 17:29:41 10° 198° (SSW) 2,317 6.3 -18.8°
Maximum altitude 17:34:57 80° 113° (ESE) 797 3.4 -19.6°
Enters shadow 17:38:36 21° 28° (NNE) 1,709 5.0 -20.1°
